| time (UTC) | temp C | wind direction | speed KPH | gust KPH | rain 1hr cm | rain 24hr cm | rain mn cm | humidity % | barometer mb |
| 20260506201417 | 8 | 180 | 0.0 | 1.6 | 0.00 | 0.36 | 0.36 | 88 | 1011.2 |
| 20260506200915 | 8 | 180 | 0.0 | 0.0 | 0.00 | 0.36 | 0.36 | 88 | 1011.2 |
| 20260506200409 | 8 | 180 | 0.0 | 0.0 | 0.00 | 0.36 | 0.36 | 88 | 1011.2 |
| 20260506195906 | 8 | 180 | 0.0 | 0.0 | 0.00 | 0.36 | 0.36 | 88 | 1011.1 |
| 20260506192858 | 9 | 180 | 0.0 | 0.0 | 0.00 | 0.36 | 0.36 | 87 | 1010.8 |
| 20260506192354 | 9 | 180 | 0.0 | 3.2 | 0.00 | 0.36 | 0.36 | 86 | 1010.7 |
| 20260506191347 | 10 | 224 | 0.0 | 4.8 | 0.00 | 0.36 | 0.36 | 86 | 1010.4 |
| 20260506190845 | 10 | 224 | 1.6 | 11.3 | 0.00 | 0.36 | 0.36 | 86 | 1010.3 |
| 20260506190344 | 10 | 216 | 3.2 | 11.3 | 0.00 | 0.36 | 0.36 | 86 | 1010.3 |
| 20260506185333 | 10 | 223 | 3.2 | 4.8 | 0.00 | 0.36 | 0.36 | 86 | 1010.3 |
| 20260506184834 | 10 | 220 | 1.6 | 4.8 | 0.00 | 0.36 | 0.36 | 85 | 1010.2 |
| 20260506184333 | 10 | 226 | 1.6 | 4.8 | 0.00 | 0.36 | 0.36 | 85 | 1010.3 |
| 20260506183832 | 10 | 224 | 1.6 | 4.8 | 0.00 | 0.36 | 0.36 | 84 | 1010.1 |
| 20260506183331 | 10 | 141 | 0.0 | 0.0 | 0.00 | 0.36 | 0.36 | 84 | 1010.1 |
| 20260506182827 | 10 | 141 | 0.0 | 6.4 | 0.00 | 0.36 | 0.36 | 83 | 1010.1 |
| 20260506181820 | 10 | 147 | 3.2 | 6.4 | 0.00 | 0.36 | 0.36 | 82 | 1010.0 |
| 20260506180813 | 11 | 224 | 1.6 | 4.8 | 0.00 | 0.36 | 0.36 | 82 | 1010.0 |
| 20260506180309 | 11 | 149 | 1.6 | 8.0 | 0.00 | 0.36 | 0.36 | 81 | 1009.8 |
| 20260506175808 | 11 | 211 | 1.6 | 8.0 | 0.00 | 0.36 | 0.36 | 81 | 1009.8 |
| 20260506175306 | 11 | 206 | 3.2 | 8.0 | 0.00 | 0.36 | 0.36 | 81 | 1009.7 |
| 20260506174305 | 11 | 164 | 4.8 | 17.7 | 0.00 | 0.36 | 0.36 | 81 | 1009.5 |
| 20260506173805 | 11 | 185 | 4.8 | 17.7 | 0.00 | 0.36 | 0.36 | 81 | 1009.4 |
| 20260506173303 | 11 | 262 | 3.2 | 16.1 | 0.00 | 0.36 | 0.36 | 81 | 1009.3 |
| 20260506172804 | 11 | 233 | 3.2 | 16.1 | 0.00 | 0.36 | 0.36 | 81 | 1009.4 |
| 20260506172306 | 11 | 219 | 4.8 | 16.1 | 0.00 | 0.36 | 0.36 | 81 | 1009.4 |
| 20260506171804 | 11 | 267 | 9.7 | 16.1 | 0.00 | 0.38 | 0.36 | 81 | 1009.4 |
| 20260506171304 | 11 | 225 | 8.0 | 16.1 | 0.00 | 0.38 | 0.36 | 81 | 1009.3 |
| 20260506170804 | 11 | 210 | 9.7 | 17.7 | 0.00 | 0.46 | 0.36 | 81 | 1009.3 |
| 20260506165802 | 11 | 236 | 6.4 | 17.7 | 0.00 | 0.51 | 0.36 | 82 | 1009.2 |
| 20260506165305 | 11 | 218 | 6.4 | 17.7 | 0.00 | 0.51 | 0.36 | 82 | 1009.2 |
| 20260506164802 | 11 | 250 | 9.7 | 17.7 | 0.00 | 0.51 | 0.36 | 82 | 1009.3 |
| 20260506164302 | 11 | 217 | 8.0 | 20.9 | 0.00 | 0.53 | 0.36 | 82 | 1009.2 |
| 20260506163802 | 11 | 204 | 8.0 | 20.9 | 0.00 | 0.53 | 0.36 | 83 | 1009.1 |
| 20260506163303 | 11 | 243 | 8.0 | 17.7 | 0.00 | 0.53 | 0.36 | 83 | 1009.1 |
| 20260506162758 | 11 | 208 | 4.8 | 20.9 | 0.00 | 0.53 | 0.36 | 84 | 1009.1 |
| 20260506161250 | 11 | 231 | 9.7 | 19.3 | 0.00 | 0.56 | 0.36 | 84 | 1009.1 |
| 20260506160242 | 11 | 240 | 8.0 | 16.1 | 0.00 | 0.56 | 0.36 | 84 | 1008.9 |
| 20260506155743 | 11 | 256 | 8.0 | 16.1 | 0.00 | 0.56 | 0.36 | 85 | 1009.1 |
| 20260506155239 | 11 | 223 | 8.0 | 20.9 | 0.00 | 0.56 | 0.36 | 85 | 1009.1 |
| 20260506154736 | 11 | 233 | 8.0 | 20.9 | 0.00 | 0.56 | 0.36 | 85 | 1009.1 |
| 20260506154232 | 11 | 218 | 8.0 | 19.3 | 0.00 | 0.56 | 0.36 | 85 | 1008.9 |
| 20260506153732 | 11 | 238 | 6.4 | 20.9 | 0.00 | 0.56 | 0.36 | 85 | 1009.1 |
| 20260506153232 | 11 | 163 | 8.0 | 20.9 | 0.00 | 0.56 | 0.36 | 85 | 1009.1 |
| 20260506152731 | 11 | 233 | 6.4 | 19.3 | 0.00 | 0.56 | 0.36 | 84 | 1009.2 |
| 20260506152231 | 11 | 195 | 6.4 | 19.3 | 0.00 | 0.56 | 0.36 | 84 | 1009.2 |
| 20260506151729 | 11 | 254 | 9.7 | 20.9 | 0.00 | 0.56 | 0.36 | 85 | 1009.2 |
| 20260506150723 | 11 | 228 | 6.4 | 12.9 | 0.00 | 0.56 | 0.36 | 86 | 1009.2 |
| 20260506150219 | 11 | 235 | 4.8 | 14.5 | 0.00 | 0.56 | 0.36 | 86 | 1009.3 |
| 20260506145717 | 11 | 212 | 6.4 | 14.5 | 0.00 | 0.56 | 0.36 | 86 | 1009.2 |
| 20260506145214 | 11 | 169 | 4.8 | 14.5 | 0.00 | 0.56 | 0.36 | 87 | 1009.1 |
| 20260506144711 | 11 | 193 | 6.4 | 14.5 | 0.03 | 0.56 | 0.36 | 87 | 1009.1 |
| 20260506144208 | 11 | 132 | 6.4 | 12.9 | 0.05 | 0.56 | 0.36 | 87 | 1009.1 |
| 20260506143705 | 11 | 226 | 6.4 | 14.5 | 0.08 | 0.56 | 0.36 | 87 | 1009.1 |
| 20260506143206 | 11 | 155 | 4.8 | 14.5 | 0.10 | 0.56 | 0.36 | 87 | 1009.1 |
| 20260506142704 | 10 | 263 | 3.2 | 19.3 | 0.13 | 0.56 | 0.36 | 87 | 1008.8 |
| 20260506142205 | 10 | 219 | 8.0 | 19.3 | 0.15 | 0.56 | 0.36 | 87 | 1008.9 |
| 20260506141705 | 10 | 197 | 8.0 | 19.3 | 0.15 | 0.56 | 0.36 | 87 | 1009.1 |
| 20260506140703 | 10 | 245 | 11.3 | 27.4 | 0.20 | 0.56 | 0.36 | 88 | 1009.1 |
| 20260506140202 | 10 | 226 | 9.7 | 16.1 | 0.20 | 0.56 | 0.36 | 88 | 1009.1 |
| 20260506135703 | 10 | 228 | 6.4 | 17.7 | 0.20 | 0.36 | 0.36 | 88 | 1009.1 |
| 20260506135202 | 10 | 201 | 11.3 | 20.9 | 0.23 | 0.36 | 0.33 | 87 | 1009.1 |
| 20260506134703 | 10 | 249 | 9.7 | 24.1 | 0.23 | 0.36 | 0.33 | 87 | 1008.9 |
| 20260506134158 | 10 | 233 | 11.3 | 29.0 | 0.23 | 0.36 | 0.30 | 87 | 1009.1 |
| 20260506133656 | 10 | 214 | 14.5 | 29.0 | 0.23 | 0.36 | 0.28 | 87 | 1009.1 |
| 20260506133153 | 10 | 226 | 9.7 | 19.3 | 0.23 | 0.36 | 0.25 | 87 | 1008.9 |
| 20260506132145 | 10 | 189 | 11.3 | 32.2 | 0.23 | 0.36 | 0.23 | 86 | 1008.7 |
| 20260506131644 | 10 | 211 | 8.0 | 40.2 | 0.20 | 0.36 | 0.20 | 86 | 1008.7 |
| 20260506131139 | 10 | 237 | 17.7 | 40.2 | 0.18 | 0.36 | 0.18 | 86 | 1008.4 |
| 20260506130635 | 10 | 240 | 12.9 | 33.8 | 0.15 | 0.36 | 0.15 | 86 | 1008.4 |
| 20260506130136 | 11 | 141 | 14.5 | 33.8 | 0.15 | 0.36 | 0.15 | 85 | 1008.4 |
| 20260506125633 | 11 | 200 | 17.7 | 37.0 | 0.15 | 0.20 | 0.15 | 85 | 1008.3 |
| 20260506125132 | 11 | 247 | 17.7 | 43.5 | 0.15 | 0.20 | 0.15 | 84 | 1008.2 |
| 20260506124631 | 11 | 235 | 20.9 | 43.5 | 0.13 | 0.20 | 0.13 | 83 | 1008.0 |
| 20260506124130 | 12 | 261 | 20.9 | 43.5 | 0.08 | 0.20 | 0.08 | 82 | 1007.9 |
| 20260506123626 | 12 | 261 | 17.7 | 27.4 | 0.05 | 0.20 | 0.05 | 82 | 1007.6 |
| 20260506123123 | 13 | 345 | 12.9 | 22.5 | 0.03 | 0.20 | 0.03 | 81 | 1007.4 |
| 20260506122619 | 13 | 228 | 9.7 | 20.9 | 0.03 | 0.20 | 0.03 | 80 | 1007.3 |
| 20260506121614 | 13 | 232 | 14.5 | 25.7 | 0.00 | 0.20 | 0.00 | 77 | 1006.9 |
| 20260506121109 | 13 | 207 | 12.9 | 22.5 | 0.00 | 0.20 | 0.00 | 78 | 1006.8 |
| 20260506120606 | 14 | 242 | 9.7 | 20.9 | 0.00 | 0.20 | 0.00 | 78 | 1006.8 |
| 20260506120105 | 14 | 236 | 8.0 | 20.9 | 0.00 | 0.20 | 0.00 | 77 | 1006.7 |
| 20260506115104 | 15 | 260 | 11.3 | 20.9 | 0.00 | 0.20 | 0.00 | 76 | 1006.5 |
| 20260506114559 | 15 | 263 | 6.4 | 20.9 | 0.00 | 0.20 | 0.00 | 76 | 1006.5 |
| 20260506114056 | 15 | 247 | 8.0 | 19.3 | 0.00 | 0.20 | 0.00 | 75 | 1006.4 |
| 20260506113049 | 15 | 232 | 6.4 | 14.5 | 0.00 | 0.20 | 0.00 | 74 | 1006.4 |
| 20260506112042 | 15 | 222 | 6.4 | 16.1 | 0.00 | 0.20 | 0.00 | 76 | 1006.3 |
| 20260506111539 | 15 | 256 | 9.7 | 16.1 | 0.00 | 0.20 | 0.00 | 75 | 1006.2 |
| 20260506111035 | 15 | 230 | 4.8 | 9.7 | 0.00 | 0.20 | 0.00 | 76 | 1006.3 |
| 20260506110533 | 15 | 317 | 3.2 | 16.1 | 0.00 | 0.20 | 0.00 | 75 | 1006.5 |
| 20260506110034 | 15 | 259 | 6.4 | 16.1 | 0.00 | 0.20 | 0.00 | 75 | 1006.7 |
| 20260506105531 | 15 | 231 | 6.4 | 11.3 | 0.00 | 0.20 | 0.00 | 78 | 1006.5 |
| 20260506105031 | 15 | 236 | 6.4 | 11.3 | 0.00 | 0.20 | 0.00 | 78 | 1006.4 |
| 20260506104532 | 15 | 212 | 4.8 | 14.5 | 0.00 | 0.23 | 0.00 | 78 | 1006.7 |
| 20260506104032 | 14 | 225 | 4.8 | 14.5 | 0.00 | 0.23 | 0.00 | 79 | 1006.7 |
| 20260506103028 | 15 | 240 | 4.8 | 6.4 | 0.00 | 0.23 | 0.00 | 79 | 1006.7 |
| 20260506102524 | 14 | 151 | 1.6 | 8.0 | 0.00 | 0.23 | 0.00 | 79 | 1006.5 |
| 20260506101518 | 14 | 257 | 6.4 | 11.3 | 0.00 | 0.23 | 0.00 | 79 | 1006.8 |
| 20260506100012 | 14 | 233 | 6.4 | 12.9 | 0.00 | 0.23 | 0.00 | 80 | 1007.0 |
| 20260506095512 | 14 | 243 | 6.4 | 12.9 | 0.00 | 0.23 | 0.00 | 80 | 1007.0 |
| 20260506095007 | 14 | 218 | 1.6 | 11.3 | 0.00 | 0.23 | 0.00 | 80 | 1006.9 |
| 20260506094504 | 14 | 180 | 6.4 | 12.9 | 0.00 | 0.23 | 0.00 | 79 | 1006.8 |
| 20260506094007 | 14 | 255 | 4.8 | 9.7 | 0.00 | 0.23 | 0.00 | 79 | 1006.8 |
| 20260506093504 | 13 | 237 | 4.8 | 8.0 | 0.00 | 0.23 | 0.00 | 80 | 1006.8 |
| 20260506093004 | 13 | 255 | 0.0 | 3.2 | 0.00 | 0.23 | 0.00 | 81 | 1006.5 |
| 20260506092503 | 13 | 256 | 0.0 | 3.2 | 0.00 | 0.23 | 0.00 | 82 | 1006.7 |
| 20260506092001 | 13 | 258 | 0.0 | 3.2 | 0.00 | 0.25 | 0.00 | 84 | 1006.5 |
| 20260506090954 | 13 | 258 | 0.0 | 3.2 | 0.00 | 0.28 | 0.00 | 84 | 1006.8 |
| 20260506090451 | 13 | 233 | 1.6 | 8.0 | 0.00 | 0.28 | 0.00 | 83 | 1006.8 |
| 20260506085949 | 13 | 232 | 3.2 | 8.0 | 0.00 | 0.28 | 0.00 | 82 | 1006.8 |
| 20260506084943 | 13 | 226 | 6.4 | 9.7 | 0.00 | 0.28 | 0.00 | 82 | 1006.9 |
| 20260506084440 | 13 | 240 | 3.2 | 9.7 | 0.00 | 0.28 | 0.00 | 83 | 1006.8 |
| 20260506083936 | 13 | 206 | 6.4 | 9.7 | 0.00 | 0.28 | 0.00 | 83 | 1006.7 |
| 20260506083431 | 13 | 218 | 1.6 | 8.0 | 0.00 | 0.28 | 0.00 | 84 | 1006.7 |
| 20260506082432 | 12 | 266 | 0.0 | 4.8 | 0.00 | 0.28 | 0.00 | 87 | 1006.7 |
| 20260506081929 | 12 | 270 | 0.0 | 4.8 | 0.00 | 0.28 | 0.00 | 88 | 1006.7 |
| 20260506081422 | 12 | 280 | 3.2 | 4.8 | 0.00 | 0.28 | 0.00 | 88 | 1006.7 |
| 20260506080917 | 12 | 283 | 0.0 | 3.2 | 0.00 | 0.28 | 0.00 | 89 | 1006.8 |
| 20260506073401 | 11 | 357 | 1.6 | 3.2 | 0.00 | 0.28 | 0.00 | 90 | 1006.8 |
| 20260506072842 | 11 | 357 | 0.0 | 1.6 | 0.00 | 0.28 | 0.00 | 90 | 1006.9 |
| 20260506072338 | 11 | 358 | 0.0 | 3.2 | 0.00 | 0.28 | 0.00 | 91 | 1006.9 |
| 20260506071835 | 11 | 358 | 0.0 | 3.2 | 0.00 | 0.28 | 0.00 | 91 | 1006.9 |
| 20260506071335 | 11 | 355 | 0.0 | 1.6 | 0.00 | 0.28 | 0.00 | 91 | 1007.0 |
| 20260506070834 | 11 | 356 | 0.0 | 4.8 | 0.00 | 0.28 | 0.00 | 91 | 1007.0 |
| 20260506061834 | 10 | 345 | 0.0 | 0.0 | 0.00 | 0.28 | 0.00 | 92 | 1007.0 |
| 20260506061331 | 10 | 345 | 0.0 | 0.0 | 0.00 | 0.28 | 0.00 | 91 | 1007.1 |
| 20260506060831 | 10 | 345 | 0.0 | 0.0 | 0.00 | 0.28 | 0.00 | 92 | 1007.0 |
| 20260506051302 | 9 | 347 | 0.0 | 0.0 | 0.00 | 0.28 | 0.00 | 92 | 1007.2 |
| 20260506050802 | 9 | 347 | 0.0 | 0.0 | 0.00 | 0.28 | 0.00 | 91 | 1007.1 |
| 20260506050257 | 8 | 347 | 0.0 | 0.0 | 0.00 | 0.28 | 0.00 | 91 | 1007.1 |
| 20260506044748 | 9 | 347 | 0.0 | 0.0 | 0.00 | 0.28 | 0.00 | 91 | 1007.1 |
| 20260506044242 | 8 | 347 | 0.0 | 1.6 | 0.00 | 0.28 | 0.00 | 91 | 1007.1 |
| 20260506043738 | 8 | 347 | 0.0 | 1.6 | 0.00 | 0.28 | 0.00 | 91 | 1007.1 |
| 20260506043236 | 8 | 347 | 0.0 | 0.0 | 0.00 | 0.28 | 0.00 | 91 | 1007.1 |
| 20260506042732 | 8 | 347 | 0.0 | 0.0 | 0.00 | 0.28 | 0.00 | 91 | 1007.2 |
| 20260506042232 | 8 | 347 | 0.0 | 0.0 | 0.00 | 0.28 | 0.00 | 91 | 1007.3 |
| 20260506041727 | 8 | 347 | 0.0 | 0.0 | 0.00 | 0.28 | 0.00 | 91 | 1007.2 |
| 20260506041223 | 8 | 347 | 0.0 | 0.0 | 0.00 | 0.28 | 0.00 | 91 | 1007.2 |
| 20260506040720 | 8 | 347 | 0.0 | 0.0 | 0.00 | 0.28 | 0.00 | 91 | 1007.4 |
| 20260506040216 | 8 | 347 | 0.0 | 0.0 | 0.00 | 0.28 | 0.00 | 91 | 1007.4 |
| 20260506035713 | 8 | 347 | 0.0 | 0.0 | 0.00 | 0.28 | 0.00 | 91 | 1007.4 |
| 20260506035209 | 8 | 347 | 0.0 | 0.0 | 0.00 | 0.28 | 0.00 | 91 | 1007.5 |
| 20260506034706 | 8 | 347 | 0.0 | 0.0 | 0.00 | 0.28 | 0.00 | 91 | 1007.6 |
| 20260506034204 | 8 | 347 | 0.0 | 0.0 | 0.00 | 0.28 | 0.00 | 91 | 1007.7 |
| 20260506033705 | 9 | 347 | 0.0 | 4.8 | 0.00 | 0.28 | 0.00 | 91 | 1007.7 |
| 20260506032705 | 9 | 347 | 1.6 | 6.4 | 0.00 | 0.28 | 0.00 | 91 | 1007.9 |
| 20260506032203 | 9 | 324 | 0.0 | 4.8 | 0.00 | 0.28 | 0.00 | 91 | 1007.8 |
| 20260506031705 | 9 | 295 | 0.0 | 1.6 | 0.00 | 0.28 | 0.00 | 91 | 1007.9 |
| 20260506031202 | 9 | 295 | 0.0 | 1.6 | 0.00 | 0.28 | 0.00 | 91 | 1008.0 |
| 20260506030202 | 9 | 295 | 0.0 | 0.0 | 0.00 | 0.28 | 0.00 | 91 | 1007.9 |
| 20260506025703 | 9 | 295 | 0.0 | 0.0 | 0.00 | 0.28 | 0.00 | 91 | 1007.9 |
| 20260506025202 | 9 | 295 | 0.0 | 0.0 | 0.00 | 0.28 | 0.00 | 91 | 1007.9 |
| 20260506024702 | 9 | 295 | 0.0 | 0.0 | 0.00 | 0.28 | 0.00 | 91 | 1008.1 |
| 20260506023649 | 9 | 295 | 0.0 | 0.0 | 0.00 | 0.28 | 0.00 | 91 | 1008.2 |
| 20260506023147 | 9 | 295 | 0.0 | 0.0 | 0.00 | 0.28 | 0.00 | 91 | 1008.2 |
| 20260506022633 | 9 | 295 | 0.0 | 0.0 | 0.00 | 0.28 | 0.00 | 91 | 1008.3 |
| 20260506022133 | 9 | 295 | 0.0 | 0.0 | 0.00 | 0.28 | 0.00 | 91 | 1008.3 |
| 20260506021123 | 9 | 295 | 0.0 | 0.0 | 0.00 | 0.28 | 0.00 | 91 | 1008.4 |
| 20260506020614 | 9 | 295 | 0.0 | 0.0 | 0.00 | 0.28 | 0.00 | 90 | 1008.5 |
| 20260506015604 | 9 | 295 | 0.0 | 0.0 | 0.00 | 0.28 | 0.00 | 91 | 1008.6 |
| 20260506015104 | 9 | 295 | 0.0 | 0.0 | 0.00 | 0.28 | 0.00 | 91 | 1008.6 |
| 20260506014604 | 9 | 295 | 0.0 | 0.0 | 0.00 | 0.28 | 0.00 | 90 | 1008.6 |
| 20260506014101 | 10 | 295 | 0.0 | 0.0 | 0.00 | 0.28 | 0.00 | 90 | 1008.7 |
| 20260506013553 | 9 | 295 | 0.0 | 0.0 | 0.00 | 0.28 | 0.00 | 90 | 1008.8 |
| 20260506013050 | 9 | 295 | 0.0 | 0.0 | 0.00 | 0.28 | 0.00 | 90 | 1008.7 |
| 20260506012534 | 9 | 295 | 0.0 | 0.0 | 0.00 | 0.28 | 0.00 | 90 | 1008.7 |
| 20260506012029 | 10 | 295 | 0.0 | 0.0 | 0.00 | 0.28 | 0.00 | 90 | 1008.7 |
| 20260506011521 | 10 | 295 | 0.0 | 0.0 | 0.00 | 0.28 | 0.00 | 90 | 1008.5 |
| 20260506011013 | 10 | 295 | 0.0 | 0.0 | 0.00 | 0.28 | 0.00 | 90 | 1008.7 |
| 20260506010509 | 10 | 295 | 0.0 | 0.0 | 0.00 | 0.28 | 0.00 | 90 | 1008.8 |
| 20260506010009 | 10 | 295 | 0.0 | 0.0 | 0.00 | 0.28 | 0.00 | 90 | 1008.9 |
| 20260506005507 | 10 | 295 | 0.0 | 1.6 | 0.00 | 0.28 | 0.00 | 90 | 1008.8 |
| 20260506005008 | 10 | 295 | 0.0 | 3.2 | 0.00 | 0.28 | 0.00 | 90 | 1008.9 |
| 20260506004505 | 10 | 295 | 3.2 | 3.2 | 0.00 | 0.28 | 0.00 | 90 | 1008.9 |
| 20260506004005 | 10 | 317 | 0.0 | 0.0 | 0.00 | 0.28 | 0.00 | 90 | 1008.9 |
| 20260506003457 | 10 | 317 | 0.0 | 0.0 | 0.00 | 0.28 | 0.00 | 90 | 1009.1 |
| 20260506002953 | 10 | 317 | 0.0 | 1.6 | 0.00 | 0.28 | 0.00 | 90 | 1009.1 |
| 20260506002450 | 10 | 317 | 0.0 | 1.6 | 0.00 | 0.28 | 0.00 | 90 | 1009.2 |
| 20260506001947 | 10 | 317 | 0.0 | 1.6 | 0.00 | 0.28 | 0.00 | 90 | 1009.3 |
| 20260505235916 | 10 | 317 | 0.0 | 0.0 | 0.00 | 0.28 | 0.00 | 90 | 1009.3 |
| 20260505235414 | 10 | 317 | 0.0 | 0.0 | 0.00 | 0.28 | 0.00 | 89 | 1009.2 |
| 20260505234911 | 10 | 317 | 0.0 | 1.6 | 0.00 | 0.28 | 0.00 | 90 | 1009.2 |
| 20260505234409 | 11 | 317 | 0.0 | 1.6 | 0.00 | 0.28 | 0.00 | 90 | 1009.2 |
| 20260505233906 | 11 | 17 | 0.0 | 0.0 | 0.00 | 0.28 | 0.00 | 90 | 1009.2 |
| 20260505233407 | 11 | 17 | 0.0 | 0.0 | 0.00 | 0.28 | 0.00 | 90 | 1009.3 |
| 20260505232902 | 10 | 17 | 0.0 | 0.0 | 0.00 | 0.28 | 0.00 | 89 | 1009.3 |
| 20260505232401 | 11 | 17 | 0.0 | 0.0 | 0.00 | 0.28 | 0.00 | 89 | 1009.6 |
| 20260505231354 | 11 | 17 | 0.0 | 0.0 | 0.00 | 0.28 | 0.00 | 89 | 1009.6 |
| 20260505230851 | 11 | 17 | 0.0 | 0.0 | 0.00 | 0.28 | 0.00 | 89 | 1009.6 |
| 20260505230348 | 11 | 17 | 0.0 | 0.0 | 0.00 | 0.28 | 0.00 | 89 | 1009.7 |
| 20260505225847 | 11 | 17 | 0.0 | 0.0 | 0.00 | 0.28 | 0.00 | 89 | 1009.6 |
| 20260505225335 | 11 | 17 | 0.0 | 0.0 | 0.00 | 0.28 | 0.00 | 89 | 1009.6 |
| 20260505224835 | 11 | 17 | 0.0 | 0.0 | 0.00 | 0.28 | 0.00 | 89 | 1009.5 |
| 20260505223835 | 11 | 17 | 0.0 | 0.0 | 0.00 | 0.28 | 0.00 | 89 | 1009.5 |
| 20260505223335 | 11 | 17 | 0.0 | 0.0 | 0.00 | 0.28 | 0.00 | 89 | 1009.4 |
| 20260505222327 | 11 | 17 | 0.0 | 0.0 | 0.00 | 0.28 | 0.00 | 89 | 1009.5 |
| 20260505221824 | 11 | 17 | 0.0 | 0.0 | 0.00 | 0.28 | 0.00 | 89 | 1009.4 |
| 20260505220803 | 11 | 17 | 0.0 | 4.8 | 0.00 | 0.28 | 0.00 | 89 | 1009.6 |
| 20260505220302 | 11 | 17 | 1.6 | 4.8 | 0.00 | 0.28 | 0.00 | 88 | 1009.7 |
| 20260505215753 | 12 | 243 | 0.0 | 1.6 | 0.00 | 0.28 | 0.28 | 88 | 1009.7 |
| 20260505215250 | 11 | 243 | 0.0 | 1.6 | 0.00 | 0.28 | 0.28 | 88 | 1009.7 |
| 20260505214747 | 11 | 243 | 0.0 | 1.6 | 0.00 | 0.28 | 0.28 | 88 | 1009.8 |
| 20260505213741 | 11 | 243 | 1.6 | 4.8 | 0.00 | 0.28 | 0.28 | 88 | 1009.7 |
| 20260505213238 | 11 | 219 | 3.2 | 4.8 | 0.00 | 0.28 | 0.28 | 88 | 1009.9 |
| 20260505212735 | 11 | 216 | 1.6 | 4.8 | 0.00 | 0.28 | 0.28 | 88 | 1009.9 |
| 20260505212233 | 11 | 216 | 1.6 | 6.4 | 0.00 | 0.28 | 0.28 | 88 | 1010.0 |
| 20260505211733 | 11 | 191 | 1.6 | 6.4 | 0.00 | 0.28 | 0.28 | 89 | 1010.0 |
| 20260505210732 | 11 | 234 | 3.2 | 6.4 | 0.00 | 0.28 | 0.28 | 88 | 1009.9 |
| 20260505210232 | 11 | 256 | 1.6 | 3.2 | 0.00 | 0.28 | 0.28 | 88 | 1009.9 |
| 20260505205231 | 11 | 257 | 0.0 | 3.2 | 0.00 | 0.28 | 0.28 | 88 | 1009.9 |
| 20260505204714 | 11 | 257 | 1.6 | 4.8 | 0.00 | 0.28 | 0.28 | 88 | 1009.9 |
| 20260505204210 | 11 | 257 | 1.6 | 4.8 | 0.00 | 0.28 | 0.28 | 88 | 1010.0 |
| 20260505203706 | 11 | 286 | 0.0 | 4.8 | 0.00 | 0.28 | 0.28 | 88 | 1010.0 |
| 20260505202706 | 11 | 290 | 0.0 | 1.6 | 0.00 | 0.28 | 0.28 | 88 | 1009.9 |
| 20260505202205 | 11 | 290 | 0.0 | 1.6 | 0.00 | 0.28 | 0.28 | 88 | 1009.8 |
| 20260505201704 | 11 | 290 | 0.0 | 3.2 | 0.00 | 0.28 | 0.28 | 88 | 1009.9 |